Terminal Aerodrome Forecast
Issued by NWS Blacksburg, VA

Current Version | Previous Version | Graphics & Text | Print | Product List | Glossary On
Versions: 1 2 3 4 5 6 7 8 9 10 11 12 13 14 15 16 17 18 19 20 21 22 23 24 25 26 27 28 29 30 31 32 33
000
FTUS41 KRNK 260529
TAFBLF
TAF
KBLF 260529Z 2606/2706 VRB03KT P6SM SCT050 BKN250
      TEMPO 2608/2612 5SM BR BKN020
     FM261500 26005KT P6SM SCT040 BKN250
     FM261800 27005KT P6SM VCSH BKN040 BKN250
     FM270200 VRB03KT P6SM SCT060 BKN120=

USA.gov is the U.S. government's official web portal to all federal, state and local government web resources and services.